Accueil
METAR-TAF:

METAR-TAF

Aéroports :

Aérodrome de Reims - Prunay

Reims, France

latitude: 49-12-31N, longitude: 004-09-24E, altitude: 95 m

Observation

Le bulletin a été fait il y a 39 minutes, à 15:30 UTC
Vent 12 kt de nord/nord-ouest
Température 10°C
Humidité 76%
Pression 1019 hPa
Visibilité 10 km ou plus

METAR: LFQA 041530Z AUTO 34012KT 9999 SCT029/// SCT034/// BKN041/// ///TCU 10/06 Q1019

Heure: 17:09 (16:09 UTC)


TAF: absent

Observations et prévisions météorologiques de plus de 4000 aéroports (messages METAR et TAF).

Les stations disponibles sont représentées par des disques jaunes et rouges sur la carte.

Passer la souris dessus pour voir le nom de la station.

Cliquer dessus pour voir les observations et prévisions météorologiques.

Pour changer de carte: cliquez sur les boutons verts avec une croix noire pour zoomer, sur le bouton vert avec un tiret pour effectuer un zoom arrière, ou sur les flèches vertes pour les cartes adjacentes.


METAR-TAF: